Location: Newark
(35.4661°N, 76.7814°E)
Time: 16:18:25
(UTC+00:00)

Hubble Space Telescope - Visible Passes

Search period start: 21 November 2019 00:00
Search period end: 01 December 2019 00:00
Orbit: 536 x 540 km, 28.5° (Epoch: 20 November)

Date Brightness Start Highest point End Pass type
(mag) Time Alt. Az. Time Alt. Az. Time Alt. Az.
21 Nov 2.3 12:57:15 10° SW 13:00:41 26° S 13:02:43 18° SE visible
21 Nov 3.9 14:37:49 10° WSW 14:38:04 11° WSW 14:38:04 11° WSW visible
22 Nov 2.3 12:46:29 10° SW 12:50:02 28° S 12:52:45 14° ESE visible
22 Nov 3.6 14:27:13 10° WSW 14:28:05 15° WSW 14:28:05 15° WSW visible
23 Nov 2.2 12:35:46 10° WSW 12:39:22 29° S 12:42:48 11° ESE visible
23 Nov 3.3 14:16:38 10° WSW 14:18:08 18° SW 14:18:08 18° SW visible
24 Nov 2.2 12:25:04 10° WSW 12:28:43 30° S 12:32:22 10° ESE visible
24 Nov 3.0 14:06:05 10° WSW 14:08:14 21° SW 14:08:14 21° SW visible
25 Nov 2.3 12:14:25 10° WSW 12:18:04 31° S 12:21:43 10° ESE visible
25 Nov 2.8 13:55:34 10° WSW 13:58:22 22° SSW 13:58:22 22° SSW visible
26 Nov 2.4 12:03:47 10° WSW 12:07:25 30° S 12:11:03 10° ESE visible
26 Nov 2.8 13:45:07 10° WSW 13:48:08 20° SSW 13:48:36 19° S visible
27 Nov 3.1 13:34:44 10° WSW 13:37:26 17° SSW 13:38:55 14° S visible
28 Nov 3.4 13:24:29 10° SW 13:26:44 14° SSW 13:28:59 10° SSE visible
29 Nov 3.6 13:14:30 10° SW 13:16:02 12° SSW 13:17:34 10° S visible
